Eagle River, WI

3:02 PM CDT on August 20, 2017 (GMT -0500)
Eagle River Union

Weather History for KEGV - May, 2014

Change the Weather History Date:

Sunday, May 25, 2014

  Actual Average Record
Temperature  
Mean Temperature 62 °F -  
Max Temperature 81 °F 63 °F 81 °F (2014)
Min Temperature 44 °F 43 °F 32 °F (2003)
Degree Days  
Heating Degree Days 2    
Growing Degree Days 12 (Base 50)    
Moisture  
Dew Point 40 °F    
Average Humidity 47    
Maximum Humidity 100    
Minimum Humidity 15    
Precipitation  
Precipitation 0.00 in - - ()
Sea Level Pressure  
Sea Level Pressure 30.05 in    
Wind  
Wind Speed 3 mph (SW)    
Max Wind Speed 13 mph    
Max Gust Speed 22 mph    
Visibility 10 miles    
Events      
Averages and records for this station are not official NWS values.
T = Trace of Precipitation, MM = Missing Value Source: NWS Daily Summary

Daily Weather History Graph

Daily Weather History Graph

Search for Another Location

Airport or City:

Trip Planner

Search our weather history database for the weather conditions in past years. The results will help you decide how hot, cold, wet, or windy it might be!

Date:

Astronomy

May. 25, 2014 Rise Set
Actual Time 5:15 AM CDT 8:33 PM CDT
Civil Twilight 4:38 AM CDT 9:10 PM CDT
Nautical Twilight 3:51 AM CDT 9:57 PM CDT
Astronomical Twilight 2:51 AM CDT 10:58 PM CDT
Moon 3:30 AM CDT (5/25) 5:24 PM CDT (5/25)
Length of Visible Light 16h 31m
Length of Day
15h 18m
Waning Crescent, 10% of the Moon is Illuminated
May 25
Waning Crescent
May 28
New
Jun 5
First Quarter
Jun 12
Full
Jun 19
Last Quarter

Hourly Weather History & Observations

Time (CDT) Temp. Dew Point Humidity Pressure Visibility Wind Dir Wind Speed Gust Speed Precip Events Conditions
12:10 AM 59.5 °F 44.1 °F 57% 30.10 in 10.0 mi Calm Calm - N/A   Clear
12:30 AM 56.5 °F 45.0 °F 65% 30.10 in 10.0 mi Calm Calm - N/A   Clear
12:50 AM 55.9 °F 44.6 °F 66% 30.10 in 10.0 mi Calm Calm - N/A   Clear
1:10 AM 53.4 °F 45.1 °F 74% 30.10 in 10.0 mi Calm Calm - N/A   Clear
1:30 AM 51.6 °F 44.1 °F 75% 30.11 in 10.0 mi Calm Calm - N/A   Clear
1:50 AM 52.0 °F 45.5 °F 79% 30.10 in 10.0 mi Calm Calm - N/A   Clear
2:10 AM 50.9 °F 45.9 °F 83% 30.11 in 10.0 mi Calm Calm - N/A   Clear
2:30 AM 50.7 °F 44.4 °F 79% 30.10 in 10.0 mi Calm Calm - N/A   Clear
2:50 AM 51.4 °F 43.9 °F 75% 30.10 in 10.0 mi Calm Calm - N/A   Clear
3:10 AM 48.9 °F 46.0 °F 90% 30.11 in 10.0 mi Calm Calm - N/A   Clear
3:30 AM 49.8 °F 44.4 °F 82% 30.11 in 10.0 mi Calm Calm - N/A   Clear
3:50 AM 50.2 °F 44.1 °F 79% 30.10 in 10.0 mi Calm Calm - N/A   Clear
4:10 AM 46.0 °F 44.8 °F 95% 30.11 in 10.0 mi Calm Calm - N/A   Clear
4:30 AM 45.5 °F 44.2 °F 95% 30.11 in 10.0 mi Calm Calm - N/A   Clear
5:10 AM 46.0 °F 45.5 °F 98% 30.11 in 10.0 mi Calm Calm - N/A   Clear
5:30 AM 44.6 °F 44.2 °F 99% 30.11 in 10.0 mi Calm Calm - N/A   Clear
5:50 AM 46.4 °F 46.4 °F 100% 30.11 in 10.0 mi Calm Calm - N/A   Clear
6:10 AM 47.1 °F 46.6 °F 98% 30.10 in 10.0 mi Calm Calm - N/A   Clear
6:30 AM 49.5 °F 48.6 °F 97% 30.11 in 10.0 mi Calm Calm - N/A   Clear
6:50 AM 55.6 °F 48.2 °F 76% 30.11 in 10.0 mi Calm Calm - N/A   Clear
7:10 AM 58.1 °F 45.5 °F 63% 30.10 in 10.0 mi Calm Calm - N/A   Clear
7:30 AM 60.3 °F 44.6 °F 56% 30.11 in 10.0 mi Calm Calm - N/A   Clear
7:50 AM 61.9 °F 43.9 °F 52% 30.11 in 10.0 mi Calm Calm - N/A   Clear
8:10 AM 64.2 °F 43.7 °F 47% 30.11 in 10.0 mi Calm Calm - N/A   Clear
8:30 AM 66.2 °F 41.5 °F 41% 30.11 in 10.0 mi WSW 5.8 mph - N/A   Clear
8:50 AM 67.5 °F 40.6 °F 38% 30.10 in 10.0 mi WSW 10.4 mph - N/A   Clear
9:30 AM 70.2 °F 39.0 °F 32% 30.10 in 10.0 mi WSW 8.1 mph - N/A   Clear
9:50 AM 71.1 °F 38.1 °F 30% 30.10 in 10.0 mi SW 9.2 mph - N/A   Clear
10:10 AM 72.1 °F 36.1 °F 27% 30.10 in 10.0 mi SW 8.1 mph - N/A   Clear
10:30 AM 73.0 °F 36.1 °F 26% 30.09 in 10.0 mi WSW 5.8 mph - N/A   Clear
10:50 AM 73.4 °F 34.9 °F 24% 30.09 in 10.0 mi SW 5.8 mph - N/A   Clear
11:10 AM 74.8 °F 35.6 °F 24% 30.08 in 10.0 mi WSW 9.2 mph - N/A   Clear
11:50 AM 75.7 °F 32.9 °F 21% 30.07 in 10.0 mi WSW 8.1 mph - N/A   Clear
12:10 PM 76.6 °F 34.2 °F 21% 30.06 in 10.0 mi WSW 8.1 mph 16.1 mph N/A   Clear
12:30 PM 77.0 °F 32.9 °F 20% 30.05 in 10.0 mi SSW 9.2 mph - N/A   Clear
12:50 PM 78.4 °F 35.2 °F 21% 30.05 in 10.0 mi SW 8.1 mph - N/A   Clear
1:10 PM 78.8 °F 34.9 °F 20% 30.04 in 10.0 mi West 5.8 mph - N/A   Clear
1:30 PM 79.0 °F 33.8 °F 19% 30.03 in 10.0 mi SW 11.5 mph - N/A   Clear
1:50 PM 79.3 °F 33.4 °F 19% 30.03 in 10.0 mi SW 11.5 mph 18.4 mph N/A   Clear
2:10 PM 80.4 °F 34.2 °F 19% 30.02 in 10.0 mi West 9.2 mph 18.4 mph N/A   Clear
2:30 PM 80.8 °F 33.6 °F 18% 30.02 in 10.0 mi SSW 6.9 mph - N/A   Clear
2:50 PM 80.6 °F 32.7 °F 18% 30.01 in 10.0 mi SW 9.2 mph 17.3 mph N/A   Clear
3:10 PM 81.1 °F 32.0 °F 17% 30.01 in 10.0 mi WSW 12.7 mph 17.3 mph N/A   Clear
3:30 PM 80.8 °F 31.8 °F 17% 30.00 in 10.0 mi WSW 10.4 mph 20.7 mph N/A   Clear
3:50 PM 81.3 °F 30.0 °F 15% 30.00 in 10.0 mi WSW 12.7 mph 21.9 mph N/A   Clear
4:10 PM 80.8 °F 31.8 °F 17% 29.99 in 10.0 mi WSW 9.2 mph 19.6 mph N/A   Clear
4:30 PM 81.3 °F 32.7 °F 17% 29.99 in 10.0 mi WSW 10.4 mph 19.6 mph N/A   Clear
4:50 PM 80.2 °F 32.7 °F 18% 29.99 in 10.0 mi SSW 9.2 mph - N/A   Clear
5:10 PM 80.2 °F 33.3 °F 18% 29.98 in 10.0 mi SW 12.7 mph 17.3 mph N/A   Clear
5:30 PM 79.3 °F 34.0 °F 19% 29.97 in 10.0 mi SSW 8.1 mph - N/A   Clear
5:50 PM 78.6 °F 33.8 °F 20% 29.97 in 10.0 mi SW 6.9 mph - N/A   Clear
6:10 PM 78.3 °F 35.4 °F 21% 29.97 in 10.0 mi SW 10.4 mph 18.4 mph N/A   Clear
6:30 PM 77.5 °F 35.6 °F 22% 29.97 in 10.0 mi WSW 9.2 mph - N/A   Clear
6:50 PM 76.3 °F 37.9 °F 25% 29.97 in 10.0 mi WSW 9.2 mph - N/A   Clear
7:10 PM 75.6 °F 39.4 °F 27% 29.97 in 10.0 mi SW 9.2 mph - N/A   Clear
7:30 PM 74.7 °F 40.1 °F 29% 29.97 in 10.0 mi SW 6.9 mph - N/A   Clear
7:50 PM 74.1 °F 40.3 °F 29% 29.97 in 10.0 mi SW 4.6 mph - N/A   Clear
8:10 PM 73.4 °F 40.6 °F 31% 29.97 in 10.0 mi SSW 3.5 mph - N/A   Clear
8:30 PM 72.0 °F 41.2 °F 33% 29.97 in 10.0 mi Calm Calm - N/A   Clear
8:50 PM 70.9 °F 41.7 °F 35% 29.98 in 10.0 mi Calm Calm - N/A   Clear
9:10 PM 67.3 °F 43.7 °F 42% 29.99 in 10.0 mi Calm Calm - N/A   Clear
9:30 PM 63.7 °F 46.0 °F 53% 29.99 in 10.0 mi Calm Calm - N/A   Clear
9:50 PM 63.1 °F 46.2 °F 54% 29.99 in 10.0 mi Calm Calm - N/A   Clear
10:10 PM 60.8 °F 45.9 °F 58% 29.99 in 10.0 mi Calm Calm - N/A   Clear
10:30 PM 60.1 °F 47.1 °F 62% 29.98 in 10.0 mi Calm Calm - N/A   Clear
10:50 PM 59.9 °F 47.3 °F 63% 29.98 in 10.0 mi Calm Calm - N/A   Clear
11:10 PM 59.0 °F 46.8 °F 64% 29.98 in 10.0 mi Calm Calm - N/A   Clear
11:30 PM 60.8 °F 45.3 °F 57% 29.97 in 10.0 mi Calm Calm - N/A   Mostly Cloudy
11:50 PM 60.4 °F 45.7 °F 58% 29.97 in 10.0 mi Calm Calm - N/A   Scattered Clouds